[[{"header":{"parameterUnit":"m.s-1","parameterCategory":2,"la1":30.2991,"la2":30.254,"lo1":-89.0895,"lo2":-89.0444,"dy":0.0017,"dx":0.0017,"nx":28,"ny":28,"refTime":"2025-12-25T03:00:00:Z","depth":"0","parameterNumber":2,"parameterNumberName":"U-component_of_CURRENTS"},"data":[0,0,0,0,0,0,0,0,0,0,0,0,0,0,0,0,0,0,0,0,0,0,0,0,0,0,0,0,0,0,0,0,0,0,0,0,0,0,0,0,0,0,0,0,0,0,0,0,0,0,0,0,0,0,0,0,0,0,0.3385,0.3385,0,0.3335,0.3334,0.3333,0.3303,0.3303,0.3304,0.3304,0.3364,0.3365,0.3367,0,0,0,0,0,0,0,0,0,0,0,0,0,0.3426,0.3425,0.3385,0.3385,0.3385,0.3335,0.3334,0.3333,0.3303,0.3304,0.3304,0.3304,0.3364,0.3365,0.3367,0,0,0,0,0,0,0,0,0,0,0,0,0,0.3391,0.3425,0.3386,0.3367,0.3365,0.3335,0.3334,0.3332,0.3303,0.3304,0.3304,0.3304,0.3363,0.3365,0.3367,0.3372,0,0,0.3373,0.3374,0,0,0,0,0,0,0,0,0.3393,0.3389,0.337,0.3369,0.3366,0.3329,0.337,0.3352,0.3303,0.3322,0.3304,0.3304,0.3365,0.3367,0.3349,0.3375,0.3377,0.3373,0.3375,0.3376,0.3376,0,0,0,0,0,0,0,0.3396,0.3391,0.3361,0.337,0.3368,0.3351,0.3347,0.3366,0.3341,0.3321,0.332,0.332,0.3364,0.3347,0.3351,0.3378,0.3373,0.3375,0.3376,0.3377,0.3417,0.3417,0,0,0,0,0,0,0.3411,0.3394,0.3363,0.336,0.3386,0.3351,0.3345,0.3337,0.3338,0.3339,0.332,0.3319,0.3343,0.3348,0.3353,0.3365,0.3376,0.3377,0.3379,0.3417,0.3417,0.3417,0,0,0,0,0,0,0.3412,0.3409,0.3365,0.3379,0.3373,0.335,0.3341,0.3336,0.3321,0.3337,0.334,0.3311,0.3344,0.335,0.3367,0.3367,0.3378,0.338,0.3417,0.3417,0.3417,0.3386,0,0,0,0,0,0,0.3413,0.3409,0.34,0.338,0.3373,0.334,0.3341,0.3335,0.3323,0.3321,0.3331,0.3336,0.3345,0.3364,0.3369,0.337,0.3382,0.3418,0.3417,0.3417,0.3388,0.3385,0.3383,0,0,0,0,0,0.3415,0.3394,0.34,0.3396,0.3365,0.3339,0.3333,0.3316,0.3322,0.3305,0.3319,0.3336,0.3366,0.3365,0.3371,0.3373,0.3418,0.3417,0.3417,0.3389,0.3386,0.3383,0,0,0,0,0,0,0.338,0.3389,0.3395,0.3371,0.3359,0.3336,0.3314,0.3317,0.331,0.3311,0.3334,0.3339,0.3362,0.3368,0.3367,0.3384,0.3395,0.3396,0.3371,0.3369,0.3366,0.3349,0.3383,0,0,0,0,0,0.3378,0.338,0.3375,0.3354,0.3347,0.3335,0.3323,0.3316,0.3312,0.3307,0.3316,0.3333,0.3363,0.3366,0.3388,0.339,0.3413,0.3395,0.3393,0.3391,0.3381,0.3418,0.3418,0.3416,0.3416,0.3416,0,0,0.3357,0.3364,0.3361,0.335,0.3335,0.3314,0.3326,0.3302,0.3287,0.332,0.3298,0.3335,0.3367,0.3374,0.3383,0.3377,0.3405,0.3391,0.3389,0.338,0.3417,0.3418,0.3418,0.3416,0.3416,0.3416,0,0,0.3321,0.3322,0.3314,0.3305,0.3297,0.329,0.3289,0.327,0.3262,0.3256,0.329,0.3316,0.3333,0.3354,0.3372,0.3369,0.3405,0.3383,0.3342,0.3378,0.3378,0.3379,0.3413,0.3417,0.3365,0.3365,0.3365,0,0.3296,0.3284,0.3302,0.3286,0.3272,0.3283,0.3256,0.3247,0.3237,0.3238,0.3244,0.329,0.3321,0.335,0.3348,0.3364,0.3392,0.3351,0.3375,0.3376,0.3377,0.3412,0.3417,0.3364,0.3364,0.3364,0.3364,0,0.3256,0.3242,0.3227,0.3224,0.3212,0.3185,0.3187,0.3176,0.3181,0.3182,0.3207,0.3243,0.3269,0.329,0.3318,0.3346,0.3367,0.3383,0.3381,0.3376,0.3413,0.3419,0.3361,0.3362,0.3362,0.3363,0,0,0.32,0.3205,0.3196,0.3185,0.3177,0.3158,0.3144,0.3135,0.3128,0.3133,0.3128,0.3184,0.3212,0.3234,0.3279,0.3303,0.3345,0.3339,0.3341,0.3371,0.3429,0.3321,0.3318,0.337,0.3371,0.3371,0.3454,0,0.3157,0.313,0.3144,0.3098,0.3075,0.3088,0.3072,0.3072,0.308,0.3075,0.3123,0.3143,0.3189,0.321,0.3243,0.3329,0.3357,0.3321,0.3431,0.3434,0.3337,0.3319,0.3151,0.3198,0.3459,0.346,0.3461,0,0.3104,0.3097,0.3057,0.3044,0.3034,0.3013,0.3,0.2992,0.3008,0.3017,0.3046,0.3086,0.3137,0.317,0.3288,0.3267,0.3341,0.3398,0.3403,0.3313,0.3335,0.3245,0.3199,0.305,0.347,0.3469,0.3468,0,0.3054,0.3027,0.3,0.2989,0.2978,0.2965,0.2964,0.2972,0.2963,0.2987,0.2983,0.3051,0.308,0.318,0.3285,0.3301,0.3403,0.3442,0.3415,0.341,0.3289,0.3269,0.3103,0.3518,0.3517,0.3517,0.3517,0,0.3,0.2969,0.2973,0.2951,0.2907,0.2925,0.2889,0.29,0.291,0.2891,0.2954,0.2955,0.3085,0.3151,0.3265,0.3334,0.3391,0.3396,0.3413,0.3272,0.3251,0.3134,0.3104,0.352,0.3519,0.3519,0.3518,0,0.2944,0.2949,0.2907,0.2893,0.2881,0.2852,0.2834,0.2814,0.2841,0.2818,0.2824,0.2891,0.2978,0.3091,0.3246,0.3285,0.3266,0.3398,0.3213,0.3204,0.3012,0.2988,0.2817,0.2766,0.338,0.3377,0.3375,0,0.2918,0.2891,0.2855,0.2823,0.2812,0.2777,0.2748,0.2769,0.275,0.2774,0.2756,0.2827,0.286,0.3015,0.3101,0.3232,0.3177,0.3132,0.3117,0.2945,0.2935,0.2862,0.283,0.2968,0.2963,0.2959,0.2956,0,0.2855,0.2843,0.2814,0.2756,0.2714,0.2666,0.2636,0.2606,0.2627,0.2616,0.2623,0.2659,0.2771,0.2799,0.2921,0.2993,0.2914,0.3047,0.2921,0.2617,0.2478,0.2455,0.2983,0.2918,0.2922,0.2924,0.2927,0.2928,0.2801,0.2768,0.2733,0.2671,0.2623,0.2561,0.2494,0.2474,0.2435,0.2393,0.2483,0.2476,0.2509,0.2654,0.2709,0.2572,0.2685,0.2505,0.2505,0.2458,0.2327,0.275,0.2664,0.2666,0.2668,0.267,0.2671,0,0.2727,0.2703,0.2649,0.2569,0.2492,0.2494,0.2411,0.2332,0.2252,0.2255,0.2253,0.2186,0.2165,0.2195,0.2103,0.2029,0.2018,0.1959,0.1817,0.1835,0.2242,0.2135,0.1863,0.1863,0.1863,0.1863,0.1863,0.1864,0.2689,0.2629,0.2606,0.2465,0.2399,0.2261,0.2194,0.2099,0.2056,0.1922,0.1847,0.1858,0.1785,0.1634,0.1497,0.1498,0.1428,0.1337,0.1416,0.1671,0.1722,0.177,0.1656,0.1288,0.1288,0.0921,0.0917,0.0915]},{"header":{"parameterUnit":"m.s-1","parameterCategory":2,"la1":30.2991,"la2":30.254,"lo1":-89.0895,"lo2":-89.0444,"dy":0.0017,"dx":0.0017,"nx":28,"ny":28,"refTime":"2025-12-25T03:00:00:Z","depth":"0","parameterNumber":3,"parameterNumberName":"V-component_of_CURRENTS"},"data":[0,0,0,0,0,0,0,0,0,0,0,0,0,0,0,0,0,0,0,0,0,0,0,0,0,0,0,0,0,0,0,0,0,0,0,0,0,0,0,0,0,0,0,0,0,0,0,0,0,0,0,0,0,0,0,0,0,0,0.0101,0.01,0,0.0103,0.0103,0.0103,0.0096,0.0096,0.0096,0.0096,0.012,0.012,0.0121,0,0,0,0,0,0,0,0,0,0,0,0,0,0.0122,0.0122,0.0101,0.01,0.01,0.0103,0.0103,0.0103,0.0097,0.0096,0.0096,0.0095,0.0119,0.012,0.0121,0,0,0,0,0,0,0,0,0,0,0,0,0,0.0119,0.0122,0.0101,0.0096,0.0096,0.0103,0.0103,0.0103,0.0097,0.0096,0.0096,0.0095,0.0119,0.012,0.0122,0.014,0,0,0.0126,0.0126,0,0,0,0,0,0,0,0,0.0119,0.0118,0.0097,0.0097,0.0096,0.0098,0.012,0.0116,0.0097,0.0098,0.0096,0.0095,0.0114,0.0116,0.0119,0.0141,0.0142,0.0126,0.0127,0.0127,0.0128,0,0,0,0,0,0,0,0.0119,0.0118,0.0103,0.0097,0.0097,0.0106,0.0104,0.0119,0.011,0.0098,0.0097,0.0095,0.0114,0.0117,0.0119,0.0142,0.0126,0.0127,0.0128,0.0129,0.0183,0.0184,0,0,0,0,0,0,0.0115,0.0118,0.0103,0.0103,0.0105,0.0105,0.0104,0.0099,0.0109,0.011,0.0096,0.0095,0.0115,0.0117,0.012,0.0156,0.0127,0.0129,0.013,0.0183,0.0183,0.0184,0,0,0,0,0,0,0.0116,0.0114,0.0102,0.011,0.0109,0.0105,0.01,0.0099,0.01,0.0107,0.0108,0.0096,0.0115,0.0118,0.0142,0.0156,0.0129,0.0131,0.0182,0.0183,0.0184,0.0219,0,0,0,0,0,0,0.0116,0.0114,0.0111,0.0109,0.0108,0.0106,0.01,0.0099,0.0099,0.0098,0.0108,0.011,0.0115,0.014,0.0143,0.0158,0.0132,0.0181,0.0182,0.0183,0.0218,0.0221,0.0225,0,0,0,0,0,0.0117,0.011,0.0111,0.0109,0.0104,0.0106,0.0106,0.0103,0.01,0.0102,0.0116,0.011,0.0149,0.0142,0.0146,0.0161,0.0181,0.0182,0.0183,0.0216,0.0221,0.0225,0,0,0,0,0,0,0.0114,0.0109,0.011,0.0101,0.0104,0.0104,0.0102,0.0104,0.0116,0.0115,0.0124,0.0127,0.0153,0.0152,0.0143,0.0179,0.0161,0.0163,0.0185,0.0189,0.0193,0.0178,0.0133,0,0,0,0,0,0.0114,0.0112,0.0109,0.0105,0.0103,0.0105,0.0106,0.0105,0.0114,0.0117,0.0128,0.0141,0.0162,0.0171,0.0185,0.0208,0.0202,0.0217,0.0221,0.0224,0.0214,0.0217,0.022,0.0189,0.0189,0.0188,0,0,0.0114,0.011,0.0109,0.0106,0.0105,0.011,0.0104,0.0103,0.0116,0.012,0.0142,0.0156,0.0171,0.0199,0.0209,0.0199,0.0235,0.0226,0.0228,0.0216,0.0219,0.0222,0.0224,0.0189,0.0189,0.0189,0,0,0.011,0.0106,0.0102,0.0106,0.0106,0.0111,0.0111,0.0115,0.0123,0.0147,0.0157,0.0179,0.0205,0.0221,0.0233,0.0264,0.0255,0.0268,0.0276,0.028,0.0283,0.0285,0.0303,0.0306,0.0269,0.0269,0.0269,0,0.0105,0.0105,0.0103,0.0103,0.0109,0.0112,0.0117,0.0128,0.0145,0.0158,0.0155,0.0201,0.0215,0.0252,0.0264,0.0272,0.0274,0.0261,0.0285,0.0286,0.0288,0.0305,0.0308,0.0271,0.0271,0.0271,0.027,0,0.0104,0.0106,0.0103,0.0109,0.0118,0.0121,0.0136,0.015,0.0162,0.0175,0.0209,0.0231,0.0254,0.0268,0.0278,0.0301,0.0302,0.0291,0.0273,0.0293,0.0311,0.0313,0.0274,0.0273,0.0272,0.0272,0,0,0.008,0.0098,0.0097,0.0108,0.0122,0.0129,0.0153,0.0177,0.0197,0.0214,0.0242,0.0277,0.028,0.0292,0.0308,0.0314,0.0339,0.0306,0.0306,0.0323,0.0358,0.0359,0.0362,0.0332,0.0332,0.0332,0.0374,0,0.0078,0.0085,0.0098,0.0118,0.0125,0.0146,0.0172,0.0197,0.022,0.025,0.0269,0.03,0.0292,0.0311,0.0315,0.0341,0.0343,0.0329,0.0336,0.0336,0.0333,0.0363,0.0393,0.0433,0.0377,0.0377,0.0377,0,0.0067,0.0079,0.0093,0.0131,0.0135,0.0151,0.0195,0.0219,0.026,0.0278,0.03,0.0317,0.0348,0.0328,0.0358,0.035,0.0348,0.0355,0.0357,0.034,0.034,0.0399,0.0439,0.0399,0.0381,0.0381,0.0381,0,0.0053,0.0076,0.0092,0.0102,0.0141,0.0158,0.0183,0.0224,0.0256,0.0295,0.0324,0.0346,0.0378,0.037,0.0392,0.0374,0.042,0.0397,0.0392,0.0393,0.0409,0.0411,0.0407,0.0391,0.0391,0.0391,0.0391,0,0.0043,0.0056,0.0086,0.0095,0.0124,0.0153,0.019,0.0219,0.0268,0.0319,0.0334,0.0387,0.0387,0.0419,0.0408,0.0424,0.0431,0.0397,0.0402,0.0425,0.0428,0.0384,0.0355,0.0393,0.0392,0.0392,0.0392,0,0.0025,0.0041,0.0062,0.0102,0.0115,0.0137,0.0193,0.0227,0.0271,0.034,0.0357,0.0427,0.0483,0.0484,0.0501,0.0463,0.0462,0.0459,0.0496,0.0503,0.0436,0.0408,0.0429,0.044,0.0454,0.0455,0.0455,0,0.0021,0.0027,0.0063,0.0079,0.0096,0.0132,0.0165,0.0218,0.0266,0.0379,0.0423,0.0498,0.0586,0.0615,0.0572,0.0555,0.0509,0.0524,0.0478,0.044,0.0412,0.0413,0.0422,0.0529,0.053,0.0531,0.0531,0,0.002,0.0026,0.0045,0.0075,0.0105,0.0152,0.0207,0.0251,0.0338,0.0419,0.0551,0.0635,0.068,0.0714,0.067,0.0631,0.0518,0.0534,0.0488,0.0461,0.047,0.0482,0.0501,0.0537,0.0536,0.0536,0.0536,0.0535,0.0021,0.003,0.0053,0.0082,0.0122,0.0194,0.0256,0.0338,0.0449,0.0619,0.0661,0.0829,0.081,0.0783,0.0715,0.0572,0.0575,0.0518,0.0489,0.0494,0.0495,0.0526,0.0563,0.0563,0.0562,0.0562,0.0562,0,0.0032,0.0042,0.0066,0.0119,0.0178,0.02,0.0307,0.0399,0.056,0.0723,0.0863,0.0966,0.0935,0.0835,0.0642,0.0544,0.0527,0.0484,0.0488,0.0499,0.0525,0.0515,0.0551,0.0551,0.0551,0.0551,0.0551,0.0551,0.004,0.0058,0.0069,0.0164,0.0217,0.0336,0.0417,0.0554,0.0693,0.0926,0.1061,0.1148,0.1057,0.0732,0.0521,0.0473,0.0434,0.0437,0.0409,0.0401,0.0402,0.0403,0.0386,0.0394,0.0394,0.0427,0.0427,0.0427]}],[{"header":{"parameterUnit":"m.s-1","parameterCategory":2,"la1":30.2991,"la2":30.254,"lo1":-89.0895,"lo2":-89.0444,"dy":0.0017,"dx":0.0017,"nx":28,"ny":28,"refTime":"2025-12-25T03:00:00:Z","depth":"2","parameterNumber":2,"parameterNumberName":"U-component_of_CURRENTS"},"data":[0,0,0,0,0,0,0,0,0,0,0,0,0,0,0,0,0,0,0,0,0,0,0,0,0,0,0,0,0,0,0,0,0,0,0,0,0,0,0,0,0,0,0,0,0,0,0,0,0,0,0,0,0,0,0,0,0,0,0.1124,0.1123,0,0.1112,0.1111,0.1111,0.1123,0.1124,0.1124,0.1125,0.119,0.1191,0.1192,0,0,0,0,0,0,0,0,0,0,0,0,0,0.1162,0.1161,0.1124,0.1123,0.1123,0.1112,0.1111,0.1111,0.1123,0.1124,0.1125,0.1125,0.1189,0.1191,0.1192,0,0,0,0,0,0,0,0,0,0,0,0,0,0.1146,0.1161,0.1124,0.1129,0.1129,0.1112,0.1111,0.1111,0.1123,0.1124,0.1125,0.1126,0.1189,0.119,0.1192,0.1186,0,0,0.1198,0.1198,0,0,0,0,0,0,0,0,0.1147,0.1144,0.1128,0.1129,0.1129,0.1121,0.1149,0.114,0.1123,0.1124,0.1125,0.1126,0.1174,0.1177,0.117,0.1189,0.1191,0.1198,0.1199,0.12,0.12,0,0,0,0,0,0,0,0.1148,0.1145,0.1118,0.1128,0.1129,0.1134,0.1132,0.1147,0.1145,0.1124,0.1125,0.1126,0.1175,0.1168,0.1172,0.1192,0.1198,0.1199,0.12,0.1201,0.1313,0.1315,0,0,0,0,0,0,0.115,0.1146,0.1118,0.1117,0.1142,0.1132,0.1131,0.1122,0.1143,0.1147,0.1125,0.1126,0.1165,0.117,0.1174,0.1242,0.12,0.1201,0.1202,0.1311,0.1313,0.1315,0,0,0,0,0,0,0.1151,0.1147,0.1119,0.1133,0.113,0.1131,0.1121,0.1121,0.113,0.1143,0.1148,0.1136,0.1165,0.1172,0.1211,0.1243,0.1202,0.1204,0.1309,0.1312,0.1314,0.1332,0,0,0,0,0,0,0.1152,0.1147,0.1146,0.1133,0.1129,0.1114,0.112,0.112,0.1129,0.1131,0.1154,0.116,0.1167,0.1208,0.1212,0.1244,0.1205,0.1306,0.131,0.1313,0.1329,0.1335,0.134,0,0,0,0,0,0.1153,0.1142,0.1146,0.1143,0.1126,0.1114,0.1112,0.1116,0.1129,0.1129,0.1159,0.116,0.1235,0.121,0.1215,0.1248,0.1305,0.1309,0.1313,0.1326,0.1334,0.134,0,0,0,0,0,0,0.1156,0.1141,0.1146,0.1131,0.1129,0.1117,0.1115,0.1123,0.1143,0.1153,0.1172,0.118,0.1235,0.1239,0.1212,0.1295,0.1275,0.128,0.1283,0.129,0.1296,0.1298,0.1206,0,0,0,0,0,0.1157,0.1146,0.1137,0.1128,0.1126,0.1126,0.1125,0.1128,0.114,0.1149,0.117,0.1206,0.1253,0.1268,0.1301,0.133,0.1348,0.1361,0.1367,0.1371,0.1379,0.1454,0.1467,0.1329,0.1329,0.1329,0,0,0.1155,0.1147,0.1141,0.1129,0.1126,0.1115,0.1127,0.1125,0.1133,0.1155,0.1181,0.1227,0.1269,0.1315,0.1339,0.1321,0.1414,0.1377,0.138,0.1386,0.146,0.1473,0.1485,0.1332,0.1332,0.1331,0,0,0.1137,0.114,0.1122,0.1118,0.1116,0.1117,0.1121,0.1121,0.1141,0.1167,0.1209,0.1275,0.1308,0.1359,0.1388,0.1445,0.145,0.1459,0.1476,0.1549,0.156,0.1571,0.1579,0.1591,0.145,0.1451,0.1451,0,0.114,0.1111,0.1117,0.11,0.1097,0.1119,0.1103,0.1123,0.1143,0.1177,0.1179,0.13,0.1333,0.1424,0.145,0.1458,0.1478,0.1441,0.1555,0.1566,0.1577,0.1583,0.1595,0.1452,0.1452,0.1452,0.1451,0,0.11,0.1086,0.1076,0.1063,0.1066,0.1056,0.1081,0.1108,0.1141,0.1173,0.1272,0.1332,0.1406,0.1438,0.1459,0.1564,0.1545,0.156,0.1532,0.1591,0.1594,0.1606,0.1454,0.1453,0.1453,0.1453,0,0,0.1082,0.1053,0.1051,0.104,0.1046,0.1042,0.1075,0.1115,0.1156,0.1214,0.1279,0.1389,0.1444,0.1483,0.1537,0.1603,0.1688,0.1611,0.1614,0.1607,0.1808,0.1576,0.1567,0.1726,0.1729,0.1732,0.1768,0,0.105,0.1004,0.1008,0.0986,0.0965,0.1007,0.1038,0.1091,0.115,0.1221,0.1332,0.1411,0.1454,0.1503,0.1584,0.168,0.1727,0.1674,0.1763,0.1764,0.1542,0.1576,0.1502,0.151,0.178,0.1782,0.1783,0,0.1009,0.0983,0.0945,0.0949,0.0949,0.0954,0.1021,0.105,0.1168,0.1222,0.1333,0.1414,0.1549,0.1563,0.1742,0.1707,0.1758,0.1813,0.1816,0.1604,0.1555,0.1503,0.1522,0.1804,0.1802,0.18,0.1799,0,0.0976,0.0946,0.0917,0.0911,0.092,0.0941,0.0965,0.1059,0.1102,0.123,0.1283,0.1444,0.1536,0.1649,0.1764,0.1766,0.1928,0.1937,0.1767,0.175,0.1704,0.1674,0.2044,0.2044,0.2044,0.2044,0.2044,0,0.0933,0.0913,0.09,0.088,0.088,0.0908,0.0945,0.1001,0.1093,0.116,0.1285,0.1377,0.1571,0.1685,0.1769,0.1786,0.193,0.1766,0.1751,0.1698,0.167,0.1947,0.1936,0.2045,0.2045,0.2044,0.2044,0,0.0895,0.0883,0.0848,0.0848,0.0856,0.0858,0.0906,0.0939,0.1033,0.1123,0.1164,0.1353,0.1494,0.1627,0.181,0.176,0.1816,0.1783,0.166,0.1625,0.1584,0.1574,0.1586,0.1578,0.1571,0.1566,0.1561,0,0.0867,0.084,0.0817,0.0801,0.0799,0.081,0.0827,0.0903,0.0941,0.111,0.1153,0.1314,0.1402,0.1518,0.1538,0.1566,0.1699,0.1425,0.1391,0.1556,0.1542,0.1542,0.154,0.1355,0.1349,0.1345,0.1341,0,0.0813,0.0807,0.0775,0.074,0.0737,0.0745,0.0775,0.0805,0.0916,0.0996,0.1134,0.1207,0.1291,0.1292,0.1252,0.1264,0.1401,0.131,0.1603,0.1424,0.1326,0.1315,0.1325,0.1298,0.1302,0.1305,0.1307,0.1309,0.0778,0.0743,0.0703,0.0683,0.0675,0.0696,0.0737,0.0781,0.0855,0.0979,0.1042,0.1105,0.1084,0.099,0.0991,0.1001,0.106,0.1025,0.1048,0.1075,0.0983,0.0872,0.0741,0.0742,0.0743,0.0744,0.0745,0,0.0723,0.0696,0.0653,0.0633,0.0634,0.0668,0.0718,0.0769,0.0873,0.0893,0.0962,0.083,0.0776,0.0838,0.0767,0.0661,0.0765,0.0658,0.0839,0.0877,0.0912,0.0822,0.0533,0.0533,0.0533,0.0533,0,0,0.069,0.063,0.0612,0.0605,0.0632,0.0675,0.0739,0.0806,0.0823,0.081,0.0794,0.0748,0.0746,0.0624,0.0579,0.0581,0.0746,0.056,0.0722,0.0974,0.101,0.1095,0.099,0,0,0,0,0]},{"header":{"parameterUnit":"m.s-1","parameterCategory":2,"la1":30.2991,"la2":30.254,"lo1":-89.0895,"lo2":-89.0444,"dy":0.0017,"dx":0.0017,"nx":28,"ny":28,"refTime":"2025-12-25T03:00:00:Z","depth":"2","parameterNumber":3,"parameterNumberName":"V-component_of_CURRENTS"},"data":[0,0,0,0,0,0,0,0,0,0,0,0,0,0,0,0,0,0,0,0,0,0,0,0,0,0,0,0,0,0,0,0,0,0,0,0,0,0,0,0,0,0,0,0,0,0,0,0,0,0,0,0,0,0,0,0,0,0,0.0383,0.0383,0,0.0384,0.0384,0.0384,0.036,0.0359,0.0359,0.0358,0.0284,0.0283,0.0281,0,0,0,0,0,0,0,0,0,0,0,0,0,0.0371,0.0371,0.0383,0.0383,0.0383,0.0384,0.0384,0.0384,0.036,0.0359,0.0359,0.0358,0.0284,0.0283,0.0281,0,0,0,0,0,0,0,0,0,0,0,0,0,0.0375,0.0371,0.0383,0.0371,0.0369,0.0384,0.0384,0.0384,0.036,0.0359,0.0358,0.0357,0.0285,0.0283,0.0281,0.029,0,0,0.0275,0.0274,0,0,0,0,0,0,0,0,0.0375,0.0376,0.0372,0.0371,0.037,0.037,0.0353,0.0349,0.0361,0.0365,0.0358,0.0357,0.0306,0.0302,0.0307,0.0287,0.0284,0.0275,0.0274,0.0273,0.0272,0,0,0,0,0,0,0,0.0375,0.0375,0.0384,0.0372,0.0371,0.0368,0.0368,0.0352,0.0341,0.0364,0.0362,0.0362,0.0305,0.0309,0.0305,0.0282,0.0275,0.0273,0.0272,0.0271,0.0253,0.0254,0,0,0,0,0,0,0.0374,0.0375,0.0384,0.0384,0.0369,0.0369,0.0369,0.0372,0.0342,0.0337,0.0362,0.036,0.0313,0.0307,0.0302,0.0328,0.0273,0.0271,0.027,0.0253,0.0254,0.0254,0,0,0,0,0,0,0.0374,0.0375,0.0384,0.0379,0.038,0.0371,0.0374,0.0372,0.0367,0.0342,0.0335,0.0357,0.0312,0.0305,0.03,0.0324,0.027,0.0268,0.0252,0.0253,0.0254,0.0368,0,0,0,0,0,0,0.0373,0.0375,0.0375,0.0379,0.038,0.0395,0.0375,0.0373,0.0368,0.0365,0.0335,0.0328,0.0311,0.0304,0.0298,0.032,0.0267,0.0251,0.0252,0.0254,0.0363,0.0373,0.0381,0,0,0,0,0,0.0373,0.0377,0.0375,0.0376,0.0381,0.0396,0.0397,0.0387,0.0369,0.0376,0.0362,0.0328,0.0307,0.0303,0.0297,0.0318,0.025,0.0252,0.0253,0.0359,0.0371,0.0381,0,0,0,0,0,0,0.0366,0.0375,0.0373,0.0377,0.0387,0.0392,0.0391,0.0386,0.0382,0.0371,0.0345,0.0338,0.0344,0.031,0.0306,0.0314,0.027,0.027,0.0353,0.0363,0.0372,0.0394,0.0265,0,0,0,0,0,0.0367,0.0374,0.0384,0.0387,0.0391,0.039,0.0392,0.039,0.0387,0.0383,0.0368,0.0348,0.0348,0.0338,0.0327,0.0332,0.0294,0.0337,0.0346,0.0354,0.0366,0.0336,0.0343,0.026,0.026,0.0259,0,0,0.0364,0.037,0.0372,0.0387,0.0389,0.0415,0.0389,0.0394,0.0422,0.0375,0.0398,0.0379,0.0356,0.0373,0.037,0.0346,0.0355,0.0356,0.0363,0.0371,0.0338,0.0346,0.0354,0.0261,0.026,0.026,0,0,0.0369,0.0368,0.038,0.0397,0.0408,0.042,0.0422,0.043,0.0437,0.0459,0.0439,0.0441,0.0424,0.0431,0.0427,0.0472,0.0406,0.0452,0.0515,0.0487,0.0494,0.0499,0.0458,0.0459,0.0454,0.0454,0.0454,0,0.0362,0.0388,0.0385,0.0411,0.0435,0.0426,0.046,0.0474,0.0484,0.0505,0.0473,0.0485,0.046,0.0502,0.052,0.0496,0.0456,0.0483,0.05,0.0505,0.0509,0.0465,0.0464,0.046,0.0459,0.0458,0.0458,0,0.0388,0.0412,0.0421,0.046,0.0487,0.051,0.054,0.0563,0.0565,0.0583,0.0614,0.0591,0.0596,0.059,0.0571,0.0596,0.0551,0.052,0.0479,0.0525,0.0474,0.0472,0.0468,0.0466,0.0464,0.0463,0,0,0.0363,0.0427,0.043,0.0473,0.0519,0.0549,0.0605,0.0663,0.0706,0.0706,0.0756,0.076,0.0735,0.0729,0.07,0.068,0.0674,0.0615,0.0611,0.0585,0.0595,0.0575,0.0569,0.0639,0.0639,0.064,0.0548,0,0.0385,0.0446,0.0479,0.0559,0.0601,0.064,0.0704,0.0756,0.0782,0.0826,0.0816,0.0834,0.0791,0.0784,0.0769,0.0702,0.0673,0.0701,0.0545,0.054,0.0527,0.0569,0.0526,0.0442,0.0545,0.0545,0.0545,0,0.0403,0.045,0.0518,0.0634,0.0657,0.07,0.0806,0.0862,0.0925,0.0942,0.0961,0.0941,0.0939,0.0871,0.0793,0.0808,0.0712,0.0648,0.0642,0.0585,0.0517,0.0412,0.0433,0.054,0.054,0.0541,0.0541,0,0.0394,0.0488,0.0547,0.0581,0.0694,0.0739,0.08,0.0883,0.0937,0.0993,0.1015,0.102,0.0992,0.0909,0.079,0.0781,0.068,0.0643,0.0535,0.0531,0.0446,0.0435,0.0569,0.0569,0.0569,0.0569,0.057,0,0.0415,0.0468,0.0541,0.0576,0.0668,0.0742,0.0836,0.0899,0.0972,0.103,0.1051,0.1079,0.0992,0.0931,0.082,0.0682,0.0695,0.0559,0.0516,0.0484,0.0478,0.0522,0.0517,0.0566,0.0567,0.0567,0.0568,0,0.0401,0.0444,0.0523,0.0627,0.066,0.072,0.0839,0.0905,0.0971,0.1037,0.1046,0.1096,0.1029,0.0934,0.0793,0.0704,0.0581,0.0514,0.0484,0.0441,0.044,0.0442,0.0399,0.0398,0.0397,0.0396,0.0395,0,0.0402,0.0433,0.0532,0.0575,0.0616,0.0708,0.0775,0.0878,0.0936,0.1047,0.1068,0.1053,0.1048,0.0878,0.071,0.0526,0.0531,0.038,0.0367,0.0465,0.0427,0.0431,0.0435,0.0285,0.0283,0.0282,0.0281,0,0.0413,0.0429,0.0492,0.0562,0.0623,0.072,0.0806,0.0847,0.096,0.1034,0.1112,0.1122,0.0973,0.0802,0.0574,0.0461,0.0421,0.0348,0.045,0.0351,0.0355,0.0319,0.0326,0.027,0.0271,0.0272,0.0272,0.0273,0.0405,0.0441,0.0497,0.0566,0.063,0.0701,0.0775,0.0864,0.0964,0.1048,0.1076,0.1062,0.087,0.0554,0.0417,0.03,0.0308,0.0241,0.0245,0.0251,0.0271,0.0275,0.0177,0.0177,0.0178,0.0178,0.0179,0,0.0409,0.0441,0.0506,0.0587,0.0639,0.0671,0.0782,0.0857,0.0957,0.0996,0.1042,0.0821,0.0636,0.0479,0.0263,0.0142,0.015,0.0133,0.0147,0.0157,0.0166,0.0184,0.0065,0.0065,0.0065,0.0064,0,0,0.0413,0.0466,0.0499,0.0568,0.0605,0.0691,0.0741,0.0836,0.0891,0.0939,0.09,0.0787,0.0592,0.039,0.0238,0.0164,0.0204,0.0159,0.0251,0.0293,0.0305,0.0215,0.0252,0,0,0,0,0]}],[{"header":{"parameterUnit":"m.s-1","parameterCategory":2,"la1":30.2991,"la2":30.254,"lo1":-89.0895,"lo2":-89.0444,"dy":0.0017,"dx":0.0017,"nx":28,"ny":28,"refTime":"2025-12-25T03:00:00:Z","depth":"4","parameterNumber":2,"parameterNumberName":"U-component_of_CURRENTS"},"data":[0,0,0,0,0,0,0,0,0,0,0,0,0,0,0,0,0,0,0,0,0,0,0,0,0,0,0,0,0,0,0,0,0,0,0,0,0,0,0,0,0,0,0,0,0,0,0,0,0,0,0,0,0,0,0,0,0,0,-0.037,-0.037,0,-0.039,-0.039,-0.0391,-0.04,-0.04,-0.04,-0.04,-0.0393,-0.0393,-0.0392,0,0,0,0,0,0,0,0,0,0,0,0,0,-0.0347,-0.0347,-0.037,-0.037,-0.037,-0.039,-0.039,-0.0391,-0.04,-0.04,-0.04,-0.04,-0.0393,-0.0393,-0.0392,0,0,0,0,0,0,0,0,0,0,0,0,0,-0.0361,-0.0347,-0.037,-0.0378,-0.0379,-0.039,-0.039,-0.0391,-0.04,-0.04,-0.04,-0.04,-0.0393,-0.0393,-0.0392,-0.0391,0,0,-0.0391,-0.0391,0,0,0,0,0,0,0,0,-0.036,-0.0362,-0.0376,-0.0377,-0.0378,-0.0393,-0.038,-0.0389,-0.04,-0.0392,-0.04,-0.04,-0.039,-0.039,-0.0394,-0.039,-0.039,-0.0391,-0.0391,-0.0391,-0.0391,0,0,0,0,0,0,0,-0.0359,-0.0361,-0.0378,-0.0377,-0.0378,-0.0383,-0.0385,-0.0382,-0.039,-0.0393,-0.0394,-0.0396,-0.0391,-0.0395,-0.0394,-0.039,-0.0391,-0.0391,-0.0391,-0.0391,-0.0377,-0.0377,0,0,0,0,0,0,-0.0356,-0.036,-0.0377,-0.0379,-0.0369,-0.0383,-0.0385,-0.0388,-0.0391,-0.0392,-0.0396,-0.0396,-0.0395,-0.0394,-0.0394,-0.0351,-0.0391,-0.0391,-0.0391,-0.0378,-0.0377,-0.0377,0,0,0,0,0,0,-0.0356,-0.0358,-0.0376,-0.037,-0.0372,-0.0383,-0.0387,-0.0389,-0.0393,-0.0394,-0.0394,-0.0398,-0.0395,-0.0394,-0.0384,-0.0352,-0.0391,-0.039,-0.0378,-0.0378,-0.0377,-0.0292,0,0,0,0,0,0,-0.0355,-0.0357,-0.0362,-0.037,-0.0373,-0.0388,-0.0387,-0.0389,-0.0394,-0.0395,-0.0396,-0.0395,-0.0395,-0.0384,-0.0383,-0.0353,-0.039,-0.0378,-0.0378,-0.0377,-0.0295,-0.0289,-0.0283,0,0,0,0,0,-0.0354,-0.0359,-0.0362,-0.0364,-0.0377,-0.0389,-0.0391,-0.0398,-0.0394,-0.0401,-0.0391,-0.0395,-0.0382,-0.0383,-0.0383,-0.0351,-0.0378,-0.0378,-0.0377,-0.0297,-0.029,-0.0283,0,0,0,0,0,0,-0.0354,-0.0361,-0.0364,-0.0371,-0.0382,-0.039,-0.0397,-0.0398,-0.0396,-0.0386,-0.0389,-0.0388,-0.0367,-0.0381,-0.0383,-0.0352,-0.0383,-0.0382,-0.0322,-0.0315,-0.0309,-0.0294,-0.039,0,0,0,0,0,-0.0355,-0.0362,-0.0369,-0.0378,-0.038,-0.0388,-0.0393,-0.0389,-0.0388,-0.0388,-0.0369,-0.0363,-0.0366,-0.0358,-0.0357,-0.0337,-0.0383,-0.0322,-0.0316,-0.0311,-0.03,-0.0372,-0.0371,-0.0376,-0.0376,-0.0376,0,0,-0.036,-0.0364,-0.0369,-0.0379,-0.0386,-0.0375,-0.0391,-0.039,-0.0366,-0.0385,-0.0335,-0.0339,-0.0359,-0.0332,-0.0325,-0.0337,-0.0331,-0.031,-0.0305,-0.0298,-0.0371,-0.0371,-0.0371,-0.0376,-0.0376,-0.0376,0,0,-0.0366,-0.0374,-0.0377,-0.0377,-0.0378,-0.0371,-0.037,-0.0353,-0.0337,-0.0293,-0.0307,-0.0304,-0.0269,-0.029,-0.0298,-0.0269,-0.0302,-0.0256,-0.0203,-0.0272,-0.0272,-0.0273,-0.0317,-0.0322,-0.0248,-0.0248,-0.0248,0,-0.0369,-0.0364,-0.0381,-0.0375,-0.0359,-0.0365,-0.0342,-0.0332,-0.0303,-0.028,-0.0262,-0.0241,-0.0254,-0.0266,-0.0237,-0.0255,-0.0284,-0.0221,-0.0264,-0.0265,-0.0268,-0.0313,-0.032,-0.0244,-0.0244,-0.0245,-0.0245,0,-0.0367,-0.0358,-0.0359,-0.0343,-0.0333,-0.0315,-0.0293,-0.0261,-0.0218,-0.0199,-0.0168,-0.0182,-0.0168,-0.0176,-0.0181,-0.02,-0.0211,-0.0251,-0.0277,-0.0262,-0.0311,-0.032,-0.0238,-0.024,-0.0241,-0.0242,0,0,-0.0371,-0.0357,-0.0355,-0.0325,-0.03,-0.0283,-0.0241,-0.0202,-0.0171,-0.0127,-0.0099,-0.0087,-0.0081,-0.0093,-0.0119,-0.0168,-0.0199,-0.0186,-0.0192,-0.0221,-0.0321,-0.0241,-0.0243,-0.0234,-0.0236,-0.0237,-0.0344,0,-0.0354,-0.0328,-0.0318,-0.0263,-0.0235,-0.0208,-0.0165,-0.013,-0.0096,-0.0068,-0.009,-0.0064,-0.0058,-0.0039,-0.0085,-0.0184,-0.0219,-0.0164,-0.0339,-0.0344,-0.0268,-0.025,-0.0241,-0.0351,-0.0353,-0.0355,-0.0356,0,-0.0341,-0.0318,-0.0261,-0.0195,-0.0179,-0.0121,-0.0045,-0.0012,0.0001,0.0024,0.0034,0.0015,-0.0023,-0.0032,-0.0163,-0.0118,-0.0187,-0.0269,-0.0277,-0.0236,-0.028,-0.0376,-0.0373,-0.0371,-0.037,-0.0369,-0.0368,0,-0.0323,-0.027,-0.021,-0.0188,-0.012,-0.0048,0.0009,0.0045,0.0066,0.0092,0.0085,0.0052,0.0015,-0.0069,-0.0201,-0.0166,-0.039,-0.0381,-0.0379,-0.0375,-0.0456,-0.0454,-0.0473,-0.0473,-0.0473,-0.0472,-0.0472,0,-0.0294,-0.0254,-0.0172,-0.0138,-0.0026,0.0016,0.0113,0.0153,0.0164,0.013,0.0154,0.0079,0.0005,-0.0132,-0.0216,-0.0328,-0.04,-0.0356,-0.0394,-0.0415,-0.0408,-0.0461,-0.0459,-0.0476,-0.0476,-0.0475,-0.0474,0,-0.0288,-0.025,-0.0173,-0.0065,-0.001,0.0085,0.0188,0.0211,0.024,0.0179,0.0188,0.0094,-0.0025,-0.0136,-0.0325,-0.0352,-0.0477,-0.051,-0.0526,-0.0567,-0.0397,-0.0388,-0.045,-0.0448,-0.0446,-0.0444,-0.0443,0,-0.0281,-0.0241,-0.012,-0.0047,0.0029,0.0159,0.0215,0.0269,0.0236,0.0136,0.0058,-0.0017,-0.009,-0.0274,-0.0376,-0.0476,-0.0489,-0.0536,-0.0417,-0.0361,-0.0393,-0.0388,-0.0382,-0.044,-0.044,-0.044,-0.0439,0,-0.0265,-0.0223,-0.0164,-0.0027,0.0081,0.015,0.0213,0.0193,0.0153,0.0146,-0.0002,-0.0047,-0.0185,-0.0261,-0.0332,-0.0434,-0.0482,-0.0516,-0.0518,-0.0407,-0.0351,-0.0383,-0.038,-0.0433,-0.0434,-0.0435,-0.0435,0,-0.025,-0.021,-0.0136,-0.0008,0.0086,0.0112,0.0164,0.0127,0.0121,0.0003,-0.0084,-0.017,-0.0233,-0.0252,-0.0378,-0.0385,-0.0335,-0.0326,-0.0336,-0.0344,-0.0255,-0.0165,-0.0212,0,0,0,0,0,-0.0226,-0.0208,-0.0122,-0.0009,0.0059,0.0101,0.0115,0.0122,0.0045,-0.0034,-0.003,-0.0143,-0.0196,-0.0257,-0.0232,-0.0328,-0.0356,-0.0302,-0.0354,-0.04,-0.0407,-0.0309,0,0,0,0,0,0,-0.0214,-0.0163,-0.0146,-0.0064,-0.0008,0.0043,0.0043,0.0004,-0.0031,-0.0091,-0.0105,-0.0126,-0.017,-0.0199,-0.0232,-0.0243,-0.0268,-0.0332,-0.0331,-0.0396,-0.0403,-0.0408,-0.031,0,0,0,0,0]},{"header":{"parameterUnit":"m.s-1","parameterCategory":2,"la1":30.2991,"la2":30.254,"lo1":-89.0895,"lo2":-89.0444,"dy":0.0017,"dx":0.0017,"nx":28,"ny":28,"refTime":"2025-12-25T03:00:00:Z","depth":"4","parameterNumber":3,"parameterNumberName":"V-component_of_CURRENTS"},"data":[0,0,0,0,0,0,0,0,0,0,0,0,0,0,0,0,0,0,0,0,0,0,0,0,0,0,0,0,0,0,0,0,0,0,0,0,0,0,0,0,0,0,0,0,0,0,0,0,0,0,0,0,0,0,0,0,0,0,0.0359,0.0359,0,0.0367,0.0368,0.0368,0.041,0.0411,0.0412,0.0413,0.0453,0.0453,0.0454,0,0,0,0,0,0,0,0,0,0,0,0,0,0.034,0.034,0.0359,0.0359,0.0359,0.0367,0.0368,0.0368,0.041,0.0411,0.0412,0.0414,0.0453,0.0453,0.0454,0,0,0,0,0,0,0,0,0,0,0,0,0,0.0348,0.034,0.0359,0.0381,0.0383,0.0367,0.0368,0.0368,0.041,0.0411,0.0413,0.0414,0.0453,0.0453,0.0454,0.0424,0,0,0.0454,0.0454,0,0,0,0,0,0,0,0,0.0348,0.0349,0.0378,0.038,0.0382,0.039,0.0376,0.0388,0.0409,0.0399,0.0413,0.0415,0.0434,0.0436,0.0433,0.0425,0.0427,0.0454,0.0454,0.0454,0.0454,0,0,0,0,0,0,0,0.0347,0.0348,0.0362,0.0378,0.038,0.0378,0.0381,0.0378,0.0408,0.04,0.0404,0.0405,0.0436,0.0433,0.0434,0.0428,0.0454,0.0454,0.0454,0.0454,0.038,0.0378,0,0,0,0,0,0,0.0347,0.0348,0.0362,0.0362,0.0369,0.0377,0.0381,0.0385,0.0408,0.0412,0.0403,0.0406,0.0432,0.0434,0.0436,0.0401,0.0454,0.0454,0.0454,0.0382,0.0379,0.0377,0,0,0,0,0,0,0.0346,0.0348,0.0361,0.0355,0.0357,0.0376,0.0381,0.0385,0.0411,0.041,0.0415,0.0429,0.0433,0.0436,0.0445,0.0403,0.0454,0.0455,0.0384,0.0381,0.0378,0.0332,0,0,0,0,0,0,0.0346,0.0348,0.0355,0.0355,0.0357,0.0371,0.0379,0.0384,0.0408,0.0413,0.0433,0.0437,0.0435,0.0445,0.0445,0.0404,0.0455,0.0387,0.0383,0.0379,0.0336,0.0327,0.032,0,0,0,0,0,0.0345,0.0349,0.0355,0.0357,0.0365,0.0372,0.0373,0.0391,0.0408,0.0421,0.0426,0.0438,0.0419,0.0445,0.0445,0.0403,0.0389,0.0384,0.0379,0.0339,0.0329,0.032,0,0,0,0,0,0,0.035,0.0354,0.0361,0.0368,0.0378,0.038,0.0392,0.0403,0.0417,0.0434,0.0432,0.0435,0.0416,0.042,0.0447,0.0366,0.0397,0.0392,0.0366,0.0356,0.0349,0.0351,0.0455,0,0,0,0,0,0.0351,0.0358,0.0362,0.0372,0.0379,0.039,0.0397,0.0415,0.0423,0.0433,0.0432,0.0422,0.0388,0.0388,0.037,0.0346,0.0356,0.0311,0.0303,0.0296,0.0295,0.0264,0.0254,0.0362,0.0362,0.0362,0,0,0.0354,0.036,0.0364,0.0374,0.0385,0.0382,0.04,0.0426,0.0413,0.0433,0.042,0.0406,0.0377,0.0335,0.0325,0.0342,0.0273,0.029,0.0285,0.0288,0.0258,0.0248,0.0239,0.0358,0.0359,0.0359,0,0,0.036,0.0375,0.0379,0.0386,0.0407,0.0404,0.0417,0.0426,0.0424,0.0409,0.0397,0.0367,0.0339,0.0294,0.0268,0.0209,0.0232,0.0196,0.0161,0.013,0.0122,0.0115,0.0131,0.0126,0.0192,0.0192,0.0192,0,0.0365,0.0372,0.0382,0.0387,0.0386,0.0413,0.041,0.0402,0.0408,0.0384,0.0405,0.0314,0.0305,0.0217,0.0191,0.019,0.02,0.0203,0.0122,0.0115,0.0108,0.0127,0.0122,0.0189,0.0189,0.019,0.019,0,0.0364,0.0377,0.0385,0.0388,0.0381,0.04,0.0381,0.0374,0.0368,0.0345,0.028,0.0252,0.0199,0.0169,0.0165,0.0088,0.0122,0.0119,0.0153,0.0095,0.0118,0.0114,0.0185,0.0186,0.0187,0.0188,0,0,0.0364,0.038,0.0389,0.0385,0.0391,0.0384,0.0349,0.031,0.0275,0.0255,0.0189,0.0118,0.0116,0.0085,0.0064,0.003,-0.0004,0.0058,0.0058,0.0088,-0.0033,-0.0014,-0.0017,-0.0015,-0.0017,-0.0018,0.0011,0,0.0369,0.0379,0.0373,0.0366,0.0364,0.0351,0.0305,0.0269,0.0232,0.0175,0.0123,0.0071,0.0078,0.0057,0.0017,-0.0009,-0.0022,-0.0009,0.0008,0.0009,0.0042,-0.0025,-0.0024,0.0007,0.0006,0.0005,0.0005,0,0.0364,0.0374,0.0381,0.0345,0.034,0.0334,0.0263,0.0229,0.0149,0.0117,0.0058,0.0027,-0.0038,-0.0014,-0.007,-0.0057,-0.004,-0.005,-0.0049,-0.0019,0.0017,0.007,-0.0003,-0.0003,-0.0002,-0.0002,-0.0001,0,0.036,0.0363,0.0371,0.0371,0.0343,0.0328,0.0303,0.0226,0.018,0.0105,0.0063,-0.0015,-0.0045,-0.0066,-0.0063,-0.0068,-0.0101,-0.0112,-0.0074,-0.007,-0.0069,-0.0061,-0.0134,-0.0134,-0.0134,-0.0134,-0.0134,0,0.0352,0.0356,0.0386,0.0399,0.0379,0.0347,0.0306,0.0258,0.0185,0.0102,0.0062,-0.0016,-0.006,-0.0087,-0.0077,-0.0081,-0.0101,-0.0089,-0.0079,-0.0086,-0.0082,-0.007,-0.0063,-0.0133,-0.0133,-0.0134,-0.0134,0,0.0337,0.0367,0.0381,0.039,0.0391,0.0382,0.0339,0.0283,0.0233,0.0125,0.0105,-0.0006,-0.0057,-0.0065,-0.01,-0.0094,-0.0097,-0.0074,-0.0044,-0.003,-0.0039,-0.0035,-0.0072,-0.0071,-0.0071,-0.007,-0.007,0,0.0322,0.0343,0.0397,0.0411,0.043,0.042,0.0388,0.0328,0.0247,0.0111,0.0034,-0.0024,-0.0093,-0.0105,-0.0115,-0.0077,-0.0067,-0.0044,-0.0092,-0.0055,-0.0041,-0.0038,-0.0034,-0.0069,-0.0069,-0.0069,-0.0069,0,0.03,0.0352,0.0371,0.0417,0.0422,0.0377,0.0325,0.0272,0.0151,0.012,-0.0026,-0.0063,-0.012,-0.0139,-0.0075,-0.0061,-0.0067,-0.004,-0.0042,-0.0088,-0.0053,-0.0038,-0.0036,-0.0067,-0.0068,-0.0068,-0.0068,0,0.0293,0.0307,0.0367,0.0384,0.0397,0.0321,0.0291,0.0186,0.0118,-0.003,-0.0073,-0.0126,-0.0156,-0.0129,-0.0094,-0.0056,-0.0078,-0.0073,-0.0074,-0.0075,-0.009,-0.0047,-0.0064,0,0,0,0,0,0.028,0.0289,0.0311,0.0302,0.0311,0.0314,0.0225,0.0172,0.0074,-0.0026,-0.005,-0.0101,-0.0109,-0.0121,-0.0084,-0.01,-0.0067,-0.0057,-0.006,-0.0059,-0.0061,-0.0077,0,0,0,0,0,0,0.0263,0.0299,0.03,0.0249,0.024,0.019,0.0155,0.0069,0.0007,-0.0059,-0.0052,-0.0071,-0.0058,-0.0104,-0.0069,-0.0066,-0.0063,-0.0055,-0.0054,-0.0058,-0.006,-0.0061,-0.0079,0,0,0,0,0]}]]